Weather History for Ruston, LA

Change the Weather History Date:

Wednesday, May 13, 2009

  Actual Average Record
Temperature  
Mean Temperature 76 °F -  
Max Temperature 87 °F 82 °F 91 °F (1933)
Min Temperature 66 °F 59 °F 43 °F (1960)
Cooling Degree Days 12    
Growing Degree Days 26 (Base 50)    
Moisture  
Dew Point 69 °F    
Average Humidity 79    
Maximum Humidity 100    
Minimum Humidity 51    
Precipitation  
Precipitation 0.00 in - - ()
Sea Level Pressure  
Sea Level Pressure 29.95 in    
Wind  
Wind Speed - (North)    
Max Wind Speed -    
Max Gust Speed -    
Visibility 8 miles    
Events Fog    
Averages and records for this station are not official NWS values.
T = Trace of Precipitation, MM = Missing Value Source: NWS Daily Summary

Daily Weather History Graph

Daily Weather History Graph

Search for Another Location

Airport:

Trip Planner

Search our weather history database for the weather conditions in past years. The results will help you decide how hot, cold, wet, or windy it might be!

Date:

Astronomy

May. 13, 2009 Rise Set
Actual Time 6:13 AM CDT 8:00 PM CDT
Civil Twilight 5:46 AM CDT 8:27 PM CDT
Nautical Twilight 5:13 AM CDT 9:00 PM CDT
Astronomical Twilight 4:39 AM CDT 9:34 PM CDT
Moon No Moon Rise 9:31 AM CDT (5/13)
Length of Visible Light 14h 41m
Length of Day
13h 47m
Waning Gibbous, 82% of the Moon is Illuminated
May 13
Waning Gibbous
May 17
Last Quarter
May 24
New
May 30
First Quarter
Jun 7
Full

Hourly Weather History & Observations

Time (CDT) Temp. Heat Index Dew Point Humidity Pressure Visibility Wind Dir Wind Speed Gust Speed Precip Events Conditions
12:00 AM 68.0 °F - 68.0 °F 100% 29.98 in 4.0 mi North - - N/A   Scattered Clouds
12:20 AM 68.0 °F - 68.0 °F 100% 29.98 in 3.0 mi North - - N/A   Scattered Clouds
12:40 AM 68.0 °F - 68.0 °F 100% 29.98 in 3.0 mi North - - N/A   Scattered Clouds
1:00 AM 68.0 °F - 68.0 °F 100% 29.97 in 2.5 mi North - - N/A   Scattered Clouds
1:20 AM 68.0 °F - 68.0 °F 100% 29.97 in 2.5 mi North - - N/A   Scattered Clouds
1:40 AM 68.0 °F - 68.0 °F 100% 29.96 in 2.5 mi North - - N/A   Clear
2:00 AM 68.0 °F - 68.0 °F 100% 29.95 in 2.5 mi North - - N/A   Clear
2:20 AM 68.0 °F - 68.0 °F 100% 29.94 in 2.0 mi North - - N/A   Clear
2:40 AM 68.0 °F - 68.0 °F 100% 29.95 in 2.0 mi North - - N/A   Clear
3:00 AM 66.2 °F - 66.2 °F 100% 29.94 in 0.5 mi North - - N/A Fog Fog
3:20 AM 66.2 °F - 66.2 °F 100% 29.94 in 1.8 mi North - - N/A   Mist
3:40 AM 68.0 °F - 68.0 °F 100% 29.94 in 4.0 mi North - - N/A   Clear
4:00 AM 69.8 °F - 69.8 °F 100% 29.94 in 5.0 mi North - - N/A   Clear
4:20 AM 69.8 °F - 69.8 °F 100% 29.94 in 4.0 mi North - - N/A   Clear
4:40 AM 69.8 °F - 69.8 °F 100% 29.94 in 4.0 mi North - - N/A   Scattered Clouds
5:00 AM 69.8 °F - 69.8 °F 100% 29.94 in 4.0 mi North - - N/A   Mostly Cloudy
5:20 AM 69.8 °F - 69.8 °F 100% 29.93 in 4.0 mi North - - N/A   Overcast
5:40 AM 69.8 °F - 69.8 °F 100% 29.94 in 3.0 mi North - - N/A   Overcast
6:00 AM 71.6 °F - 69.8 °F 94% 29.95 in 5.0 mi North - - N/A   Overcast
6:20 AM 71.6 °F - 69.8 °F 94% 29.96 in 7.0 mi North - - N/A   Overcast
6:40 AM 71.6 °F - 69.8 °F 94% 29.97 in 7.0 mi North - - N/A   Overcast
7:00 AM 71.6 °F - 69.8 °F 94% 29.97 in 7.0 mi North - - N/A   Overcast
7:20 AM 71.6 °F - 69.8 °F 94% 29.98 in 10.0 mi North - - N/A   Overcast
7:40 AM 71.6 °F - 69.8 °F 94% 29.97 in 7.0 mi North - - N/A   Overcast
8:00 AM 71.6 °F - 69.8 °F 94% 29.98 in 10.0 mi North - - N/A   Overcast
8:20 AM 71.6 °F - 69.8 °F 94% 29.98 in 10.0 mi North - - N/A   Overcast
8:40 AM 73.4 °F - 69.8 °F 88% 29.98 in 10.0 mi North - - N/A   Overcast
9:00 AM 73.4 °F - 69.8 °F 88% 29.98 in 10.0 mi North - - N/A   Mostly Cloudy
9:20 AM 75.2 °F - 69.8 °F 83% 29.98 in 10.0 mi North - - N/A   Mostly Cloudy
9:40 AM 75.2 °F - 69.8 °F 83% 29.98 in 10.0 mi North - - N/A   Mostly Cloudy
10:00 AM 77.0 °F - 69.8 °F 78% 29.97 in 10.0 mi North - - N/A   Mostly Cloudy
10:20 AM 78.8 °F - 69.8 °F 74% 29.98 in 10.0 mi North - - N/A   Scattered Clouds
10:40 AM 77.0 °F - 68.0 °F 74% 29.97 in 10.0 mi North - - N/A   Scattered Clouds
11:00 AM 78.8 °F - 68.0 °F 69% 29.97 in 10.0 mi North - - N/A   Scattered Clouds
11:20 AM 80.6 °F 83.2 °F 68.0 °F 65% 29.96 in 10.0 mi North - - N/A   Scattered Clouds
11:40 AM 80.6 °F 83.9 °F 69.8 °F 70% 29.96 in 10.0 mi North - - N/A   Scattered Clouds
12:00 PM 82.4 °F 86.3 °F 69.8 °F 66% 29.96 in 10.0 mi North - - N/A   Scattered Clouds
12:20 PM 82.4 °F 86.3 °F 69.8 °F 66% 29.96 in 10.0 mi North - - N/A   Scattered Clouds
12:40 PM 82.4 °F 85.4 °F 68.0 °F 62% 29.96 in 10.0 mi North - - N/A   Scattered Clouds
1:00 PM 84.2 °F 88.4 °F 69.8 °F 62% 29.95 in 10.0 mi North - - N/A   Scattered Clouds
1:20 PM 84.2 °F 88.4 °F 69.8 °F 62% 29.94 in 10.0 mi North - - N/A   Scattered Clouds
1:40 PM 86.0 °F 89.4 °F 68.0 °F 55% 29.94 in 10.0 mi North - - N/A   Scattered Clouds
2:00 PM 86.0 °F 89.4 °F 68.0 °F 55% 29.93 in 10.0 mi North - - N/A   Scattered Clouds
2:20 PM 86.0 °F 89.4 °F 68.0 °F 55% 29.93 in 10.0 mi North - - N/A   Scattered Clouds
2:40 PM 86.0 °F 88.2 °F 66.2 °F 51% 29.93 in 10.0 mi North - - N/A   Scattered Clouds
3:00 PM 86.0 °F 89.4 °F 68.0 °F 55% 29.92 in 10.0 mi North - - N/A   Mostly Cloudy
3:20 PM 86.0 °F 89.4 °F 68.0 °F 55% 29.92 in 10.0 mi North - - N/A   Mostly Cloudy
3:40 PM 86.0 °F 89.4 °F 68.0 °F 55% 29.91 in 10.0 mi North - - N/A   Mostly Cloudy
4:00 PM 87.8 °F 91.4 °F 68.0 °F 52% 29.90 in 10.0 mi North - - N/A   Scattered Clouds
4:20 PM 86.0 °F 89.4 °F 68.0 °F 55% 29.90 in 10.0 mi North - - N/A   Scattered Clouds
4:40 PM 87.8 °F 91.4 °F 68.0 °F 52% 29.90 in 10.0 mi North - - N/A   Scattered Clouds
5:00 PM 86.0 °F 89.4 °F 68.0 °F 55% 29.90 in 10.0 mi North - - N/A   Scattered Clouds
5:20 PM 86.0 °F 89.4 °F 68.0 °F 55% 29.90 in 10.0 mi North - - N/A   Scattered Clouds
5:40 PM 86.0 °F 89.4 °F 68.0 °F 55% 29.90 in 10.0 mi North - - N/A   Clear
6:00 PM 86.0 °F 89.4 °F 68.0 °F 55% 29.90 in 10.0 mi North - - N/A   Scattered Clouds
6:20 PM 86.0 °F 89.4 °F 68.0 °F 55% 29.90 in 10.0 mi North - - N/A   Clear
6:40 PM 84.2 °F 87.3 °F 68.0 °F 58% 29.90 in 10.0 mi North - - N/A   Clear
7:00 PM 82.4 °F 85.4 °F 68.0 °F 62% 29.91 in 10.0 mi North - - N/A   Clear
7:20 PM 82.4 °F 85.4 °F 68.0 °F 62% 29.91 in 10.0 mi North - - N/A   Clear
7:40 PM 80.6 °F 83.2 °F 68.0 °F 65% 29.91 in 10.0 mi North - - N/A   Clear
8:00 PM 78.8 °F - 68.0 °F 69% 29.92 in 10.0 mi North - - N/A   Clear
8:20 PM 78.8 °F - 68.0 °F 69% 29.92 in 10.0 mi North - - N/A   Clear
8:40 PM 77.0 °F - 68.0 °F 74% 29.93 in 10.0 mi North - - N/A   Clear
9:00 PM 77.0 °F - 68.0 °F 74% 29.93 in 10.0 mi North - - N/A   Clear
9:20 PM 75.2 °F - 68.0 °F 78% 29.94 in 10.0 mi North - - N/A   Clear
9:40 PM 75.2 °F - 68.0 °F 78% 29.95 in 10.0 mi North - - N/A   Clear
10:00 PM 75.2 °F - 68.0 °F 78% 29.95 in 10.0 mi North - - N/A   Clear
10:20 PM 75.2 °F - 68.0 °F 78% 29.95 in 10.0 mi North - - N/A   Clear
10:40 PM 75.2 °F - 68.0 °F 78% 29.95 in 10.0 mi North - - N/A   Clear
11:20 PM 75.2 °F - 66.2 °F 73% 29.95 in 10.0 mi North - - N/A   Clear
11:40 PM 75.2 °F - 68.0 °F 78% 29.96 in 10.0 mi North - - N/A   Clear